MAKERSAT 0

Last updated on Sat Aug 15 2026 00:03:44 GMT+0000 (Coordinated Universal Time)

1 43016U 17073D 26226.59721601 .00015656 00000+0 39915-3 0 9993 2 43016 97.4526 109.6207 0104334 65.5180 295.6900 15.34108453475410
UTC large
Height (km)
Speed (km/s)
/
Latitude / Longitude
Inclination (degrees)
Orbital Period (minutes)
Azimuth
Elevation
Range (km)
Doppler Factor

Next 0 passes for location: London (51.5072 / 0.1276)

No passes found over London.
MAKERSAT 0